Regional Weather Roundup
Issued by NWS Portland, ME

Home | Current Version | Previous Version | Text Only | Print | Product List | Glossary On
Versions: 1 2 3 4 5 6 7 8 9 10 11 12 13 14 15 16 17 18 19 20 21 22 23 24 25 26 27 28 29 30 31 32 33 34 35 36 37 38 39 40 41 42 43 44 45 46 47 48 49 50
000
ASUS41 KGYX 302310
RWRGYX
WEATHER ROUNDUP FOR MAINE AND NEW HAMPSHIRE
NATIONAL WEATHER SERVICE GRAY ME
600 PM EST FRI JAN 30 2015

MEZ002-005-006-010-012-015-018-020-021-024-026-027-029-310000-
MAINE

CITY           SKY/WX    TMP DP  RH WIND       PRES   REMARKS
PORTLAND       LGT SNOW  31  28  89 NW7       29.71R FOG
SANFORD        CLOUDY    28  27  93 CALM      29.71S
BAR HARBOR     CLOUDY    34  32  93 CALM      29.70S
WISCASSET      LGT SNOW  29  26  89 VRB3      29.71R FOG
ROCKLAND       CLOUDY    36  36 100 CALM      29.67S
FRYEBURG       FLURRIES  29  26  89 NW3       29.72R
LEWISTONAUBURN CLOUDY    28  27  93 NW5       29.71R
AUGUSTA        LGT SNOW  27  25  92 NW10      29.70R FOG     WCI  17
WATERVILLE       N/A     28  25  86 N8        29.68R
BANGOR         SNOW      33  32  96 E5        29.70S VSB 1/2
GREENVILLE       N/A     26  24  92 N7        29.66S
MILLINOCKET    LGT SNOW  29  27  92 N3        29.74F FOG
HOULTON        LGT SNOW  25  21  85 SE12      29.75F FOG     WCI  14
PRESQUE ISLE   CLOUDY    27  21  80 CALM      29.78S
FRENCHVILLE    LGT SNOW  23  20  88 CALM      29.76R FOG
CARIBOU        LGT SNOW  26  23  88 CALM      29.77S VSB 1
$$

NHZ002-005-008-009-011-012-014-310000-
NEW HAMPSHIRE

CITY           SKY/WX    TMP DP  RH WIND       PRES   REMARKS
PORTSMOUTH     LGT SNOW  31  28  89 NW9       29.70F FOG
ROCHESTER      LGT SNOW  30  26  85 NW12      29.71R FOG
NASHUA         MOCLDY    30  24  78 NW14G20   29.76R WCI  19
MANCHESTER     FLURRIES  29  23  78 NW14G24   29.74R WCI  18
CONCORD        CLOUDY    28  20  71 NW16      29.76R WCI  16
LACONIA        CLOUDY    27  19  74 W12       29.73R WCI  16
PLYMOUTH       FLURRIES  21  17  85 W9G23     29.80R
BERLIN         CLOUDY    21  13  71 NW12      29.78R WCI   9
WHITEFIELD     LGT SNOW  18  12  77 NW9       29.83R
JAFFREY        CLOUDY    26  18  71 NW9G17    29.74R
KEENE          MOCLDY    27  16  63 NW10      29.81R WCI  17
LEBANON        CLOUDY    21  11  65 N14G25    29.86R WCI   8
MT WASHINGTON  SNOW       5   5 100 N31G38      N/A  VSB 1/16WCI -19
$$

VTZ005-007-008-310000-
VERMONT

CITY           SKY/WX    TMP DP  RH WIND       PRES   REMARKS
ST JOHNSBURY     N/A     16   9  74 MISG      29.87R
MONTPELIER     LGT SNOW  10   5  80 NW14G24   29.92R WCI  -6
BURLINGTON     LGT SNOW  13   6  74 N10       30.03R WCI   0
$$

MAZ007-012-024-CTZ003-RIZ002-NYZ038-NYZ072-310000-
SOUTHERN NEW ENGLAND AND NY

CITY           SKY/WX    TMP DP  RH WIND       PRES   REMARKS
BOSTON         FLURRIES  33  27  78 NW13G21   29.73R
WORCESTER      FLURRIES  27  19  72 NW17G33   29.71S WCI  14
NANTUCKET      CLOUDY    34  31  88 NW17      29.68R
PROVIDENCE     FLURRIES  32  26  78 NW10      29.75R
HARTFORD       MOCLDY    29  15  56 NW20G26   29.82R WCI  16
ALBANY         MOCLDY    20   9  62 W23G43    29.98R WCI   3
NEW YORK CITY  PTCLDY    32  17  54 NW28G33   29.91R WCI  18
$$

ANZ081-ANZ082-ANZ150-NHZ014-MEZ023>029-310000-
COASTAL MARINE OBSERVATIONS

STATION/POSITION TIME  TEMP    WIND        PRES    WAVE
                       AIR SEA DIR/SP/G            HT/PER
                 (UTC) (F)     (DEG/KT/KT) (MB)    (FT/S)
MOUNT DESERT ROC 2300   40                 1004.3F
MATINICUS ROCK   2300          120/ 12/ 13 1003.9F
PORTLAND WX BUOY 2250   32 40  350/ 16/ 17 1005.1R   3/ 6
WELLS            2200   30 33  330/  7/  9 1005.3S
ISLE OF SHOALS   2300   31     320/ 19/ 22 1005.0F
JEFFREYS LEDGE   2221      43                N/A     4/ 5
CASHES LEDGE BUO 2250   38 44  200/ 14/ 16 1003.2F   3/ 5
$$

.............KEY..............
   WCI - WIND CHILL
   TC  - TEMPERATURE IN CELSIUS
   VSB - VISIBILITY IN MILES
   HX  - HEAT INDEX
   FAIR- INDICATES FEW OR NO CLOUDS BELOW 12,000 FT, WITH NO
         SIGNIFICANT WEATHER AND/OR OBSTRUCTIONS TO VISIBILITY.





USA.gov is the U.S. government's official web portal to all federal, state and local government web resources and services.